IQ1GE Weather Reports


time (UTC)temp
C
wind
direction
speed
KPH
gust
KPH
rain 1hr
cm
rain 24hr
cm
rain mn
cm
humidity
%
barometer
mb
20260507143437 20 166 0.0 0.0 0.00 0.00 0.00 70 1015.5
20260507142931 20 173 0.0 0.0 0.00 0.00 0.00 69 1015.6
20260507142437 20 148 0.0 0.0 0.00 0.00 0.00 71 1015.6
20260507141931 20 130 0.0 0.0 0.00 0.00 0.00 71 1015.6
20260507141431 20 198 0.0 0.0 0.00 0.00 0.00 71 1015.7
20260507140931 20 210 0.0 0.0 0.00 0.00 0.00 73 1015.7
20260507140431 19 40 0.0 0.0 0.00 0.00 0.00 73 1015.7
20260507135934 20 184 0.0 0.0 0.00 0.00 0.00 71 1015.7
20260507135434 20 199 0.0 0.0 0.00 0.00 0.00 72 1015.8
20260507134931 20 183 0.0 0.0 0.00 0.00 0.00 73 1015.7
20260507134431 20 180 0.0 0.0 0.00 0.00 0.00 72 1015.8
20260507133931 20 144 0.0 0.0 0.00 0.00 0.00 71 1015.8
20260507133431 20 240 0.0 0.0 0.00 0.00 0.00 72 1015.7
20260507132934 20 183 0.0 0.0 0.00 0.00 0.00 72 1015.6
20260507132431 20 231 0.0 0.0 0.00 0.00 0.00 71 1015.7
20260507131934 20 220 0.0 0.0 0.00 0.00 0.00 70 1015.7
20260507131434 20 162 0.0 0.0 0.00 0.00 0.00 72 1015.7
20260507130931 20 206 0.0 0.0 0.00 0.00 0.00 73 1015.7
20260507130431 20 359 0.0 0.0 0.00 0.00 0.00 72 1015.7
20260507125934 20 212 0.0 0.0 0.00 0.00 0.00 72 1015.6
20260507125440 20 185 0.0 0.0 0.00 0.00 0.00 73 1015.7
20260507124931 20 126 0.0 0.0 0.00 0.00 0.00 73 1015.6
20260507124434 20 226 0.0 0.0 0.00 0.00 0.00 72 1015.6
20260507123931 20 207 0.0 0.0 0.00 0.00 0.00 71 1015.5
20260507123431 20 235 0.0 0.0 0.00 0.00 0.00 71 1015.6
20260507122931 20 164 0.0 0.0 0.00 0.00 0.00 73 1015.5
20260507122434 20 161 0.0 0.0 0.00 0.00 0.00 73 1015.5
20260507121931 20 359 0.0 0.0 0.00 0.00 0.00 72 1015.5
20260507121437 20 197 0.0 0.0 0.00 0.00 0.00 73 1015.5
20260507120937 19 199 0.0 0.0 0.00 0.00 0.00 74 1015.5
20260507120431 19 226 0.0 0.0 0.00 0.00 0.00 74 1015.5
20260507115931 19 262 0.0 0.0 0.00 0.00 0.00 74 1015.5
20260507115434 19 233 0.0 0.0 0.00 0.00 0.00 74 1015.5
20260507114937 19 359 0.0 0.0 0.00 0.00 0.00 73 1015.6
20260507114431 19 196 0.0 0.0 0.00 0.00 0.00 72 1015.7
20260507113934 19 359 0.0 0.0 0.00 0.00 0.00 71 1015.8
20260507113434 19 195 0.0 0.0 0.00 0.00 0.00 70 1015.8
20260507112931 20 223 0.0 0.0 0.00 0.00 0.00 70 1015.8
20260507112431 19 195 0.0 0.0 0.00 0.00 0.00 71 1015.9
20260507111934 20 359 0.0 0.0 0.00 0.00 0.00 70 1015.9
20260507111440 20 139 0.0 0.0 0.00 0.00 0.00 71 1015.9
20260507110931 19 149 0.0 0.0 0.00 0.00 0.00 72 1015.8
20260507110431 19 172 0.0 0.0 0.00 0.00 0.00 73 1015.8
20260507105934 19 359 0.0 0.0 0.00 0.00 0.00 73 1015.7
20260507105434 19 168 0.0 0.0 0.00 0.00 0.00 73 1015.7
20260507104931 19 287 0.0 0.0 0.00 0.00 0.00 74 1015.7
20260507104434 19 247 0.0 0.0 0.00 0.00 0.00 73 1015.7
20260507103934 19 199 0.0 0.0 0.00 0.00 0.00 73 1015.8
20260507103437 19 330 0.0 0.0 0.00 0.00 0.00 73 1015.8
20260507102937 18 218 0.0 0.0 0.00 0.00 0.00 74 1015.8
20260507102431 18 181 0.0 0.0 0.00 0.00 0.00 75 1015.7
20260507101931 18 359 0.0 0.0 0.00 0.00 0.00 77 1015.7
20260507101431 18 246 0.0 0.0 0.00 0.00 0.00 77 1015.8
20260507100931 18 246 0.0 0.0 0.00 0.00 0.00 76 1015.7
20260507100431 18 289 0.0 0.0 0.00 0.00 0.00 75 1015.8
20260507095931 19 184 0.0 0.0 0.00 0.00 0.00 75 1015.6
20260507095434 19 231 0.0 0.0 0.00 0.00 0.00 74 1015.8
20260507094931 20 274 0.0 0.0 0.00 0.00 0.00 72 1015.8
20260507094434 20 241 0.0 0.0 0.00 0.00 0.00 73 1015.7
20260507093931 20 346 0.0 0.0 0.00 0.00 0.00 75 1015.7
20260507093431 19 281 0.0 0.0 0.00 0.00 0.00 75 1015.7
20260507092931 19 158 0.0 0.0 0.00 0.00 0.00 73 1015.7
20260507092434 19 301 0.0 0.0 0.00 0.00 0.00 73 1015.7
20260507091931 19 284 0.0 0.0 0.00 0.00 0.00 73 1015.6
20260507091437 19 200 0.0 0.0 0.00 0.00 0.00 73 1015.7
20260507090931 19 295 0.0 0.0 0.00 0.00 0.00 73 1015.6
20260507090431 19 229 0.0 0.0 0.00 0.00 0.00 73 1015.6
20260507085934 19 216 0.0 0.0 0.00 0.00 0.00 74 1015.6
20260507085434 18 300 0.0 0.0 0.00 0.00 0.00 74 1015.6
20260507084931 18 359 0.0 0.0 0.00 0.00 0.00 74 1015.5
20260507084431 18 242 0.0 0.0 0.00 0.00 0.00 74 1015.5
20260507083931 18 215 0.0 0.0 0.00 0.00 0.00 75 1015.3
20260507083434 18 359 0.0 0.0 0.00 0.00 0.00 76 1015.2
20260507082934 18 359 0.0 0.0 0.00 0.00 0.00 76 1015.2
20260507082431 18 359 0.0 0.0 0.00 0.00 0.00 75 1015.2
20260507081931 18 359 0.0 0.0 0.00 0.00 0.00 76 1015.2
20260507081431 18 359 0.0 0.0 0.00 0.00 0.00 76 1015.1
20260507080937 18 359 0.0 0.0 0.00 0.00 0.00 76 1015.0
20260507080434 18 216 0.0 0.0 0.00 0.00 0.00 75 1015.0
20260507075931 18 359 0.0 0.0 0.00 0.00 0.00 75 1015.1
20260507075434 18 273 0.0 0.0 0.00 0.00 0.00 74 1014.9
20260507074934 18 238 0.0 0.0 0.00 0.00 0.00 74 1014.7
20260507074437 17 230 0.0 0.0 0.00 0.00 0.00 74 1014.6
20260507073934 17 305 0.0 0.0 0.00 0.00 0.00 74 1014.6
20260507073431 17 83 0.0 0.0 0.00 0.00 0.00 74 1014.6
20260507072937 17 298 0.0 0.0 0.00 0.00 0.00 73 1014.5
20260507072431 17 8 0.0 0.0 0.00 0.00 0.00 73 1014.6
20260507071931 18 136 0.0 0.0 0.00 0.00 0.00 73 1014.7
20260507071432 18 246 0.0 0.0 0.00 0.00 0.00 73 1014.7
20260507070931 18 187 0.0 0.0 0.00 0.00 0.00 73 1014.6
20260507070431 17 359 0.0 0.0 0.00 0.00 0.00 74 1014.5
20260507065931 17 348 0.0 0.0 0.00 0.00 0.00 74 1014.4
20260507065434 17 326 0.0 0.0 0.00 0.03 0.00 75 1014.4
20260507064940 17 69 0.0 0.0 0.00 0.15 0.00 75 1014.4
20260507064431 17 338 0.0 0.0 0.00 0.36 0.00 75 1014.5
20260507063934 17 359 0.0 0.0 0.00 0.46 0.00 75 1014.4
20260507063431 17 359 0.0 0.0 0.00 0.46 0.00 76 1014.3
20260507062935 17 359 0.0 0.0 0.00 0.46 0.00 76 1014.3
20260507062432 17 359 0.0 0.0 0.00 0.46 0.00 77 1014.4
20260507061941 17 350 0.0 0.0 0.00 0.46 0.00 77 1014.4
20260507061432 17 276 0.0 0.0 0.00 0.46 0.00 78 1014.3
20260507060935 17 92 0.0 0.0 0.00 0.46 0.00 79 1014.3
20260507060435 16 359 0.0 0.0 0.00 0.46 0.00 79 1014.2
20260507055931 16 359 0.0 0.0 0.00 0.46 0.00 79 1014.1
20260507055435 16 359 0.0 0.0 0.00 0.46 0.00 79 1014.2
20260507054935 16 359 0.0 0.0 0.00 0.46 0.00 79 1014.2
20260507054432 16 359 0.0 0.0 0.00 0.46 0.00 79 1014.2
20260507053935 16 359 0.0 0.0 0.00 0.46 0.00 79 1014.2
20260507053432 16 359 0.0 0.0 0.00 0.46 0.00 79 1014.2
20260507052938 16 359 0.0 0.0 0.00 0.46 0.00 80 1014.2
20260507052432 16 359 0.0 0.0 0.00 0.46 0.00 80 1014.1
20260507051935 16 359 0.0 0.0 0.00 0.46 0.00 80 1014.1
20260507051432 16 359 0.0 0.0 0.00 0.46 0.00 81 1014.1
20260507050938 16 359 0.0 0.0 0.00 0.46 0.00 81 1013.9
20260507050435 16 359 0.0 0.0 0.00 0.46 0.00 81 1013.8
20260507045938 16 359 0.0 0.0 0.00 0.46 0.00 81 1013.7
20260507045432 16 359 0.0 0.0 0.00 0.46 0.00 81 1013.7
20260507044935 16 359 0.0 0.0 0.00 0.46 0.00 81 1013.7
20260507044435 16 359 0.0 0.0 0.00 0.46 0.00 81 1013.6
20260507043935 16 359 0.0 0.0 0.00 0.46 0.00 81 1013.6
20260507043435 16 359 0.0 0.0 0.00 0.46 0.00 81 1013.6
20260507042932 16 359 0.0 0.0 0.00 0.46 0.00 81 1013.6
20260507042435 16 359 0.0 0.0 0.00 0.46 0.00 81 1013.5
20260507041935 16 359 0.0 0.0 0.00 0.46 0.00 81 1013.5
20260507041435 16 359 0.0 0.0 0.00 0.48 0.00 81 1013.5
20260507040935 16 359 0.0 0.0 0.00 0.51 0.00 81 1013.5
20260507040435 16 359 0.0 0.0 0.00 0.51 0.00 81 1013.5
20260507035938 16 359 0.0 0.0 0.00 0.51 0.00 81 1013.5
20260507035435 16 359 0.0 0.0 0.00 0.51 0.00 80 1013.5
20260507034932 16 359 0.0 0.0 0.00 0.51 0.00 81 1013.4
20260507034432 16 359 0.0 0.0 0.00 0.51 0.00 81 1013.5
20260507033932 16 359 0.0 0.0 0.00 0.51 0.00 80 1013.5
20260507033438 16 359 0.0 0.0 0.00 0.51 0.00 80 1013.5
20260507032932 16 359 0.0 0.0 0.00 0.51 0.00 80 1013.4
20260507032438 16 359 0.0 0.0 0.00 0.51 0.00 81 1013.3
20260507031938 16 359 0.0 0.0 0.00 0.51 0.00 81 1013.4
20260507031432 16 359 0.0 0.0 0.00 0.51 0.00 80 1013.4
20260507030935 16 359 0.0 0.0 0.00 0.51 0.00 81 1013.4
20260507030432 16 359 0.0 0.0 0.00 0.51 0.00 81 1013.4
20260507025938 16 359 0.0 0.0 0.00 0.51 0.00 80 1013.4
20260507025435 16 359 0.0 0.0 0.00 0.51 0.00 80 1013.4
20260507024935 16 359 0.0 0.0 0.00 0.51 0.00 80 1013.3
20260507024432 16 359 0.0 0.0 0.00 0.53 0.00 80 1013.3
20260507023932 16 359 0.0 0.0 0.00 0.56 0.00 80 1013.4
20260507023438 17 359 0.0 0.0 0.00 0.58 0.00 80 1013.3
20260507022935 17 359 0.0 0.0 0.00 0.61 0.00 80 1013.4
20260507022432 17 359 0.0 0.0 0.00 0.64 0.00 80 1013.4
20260507021932 17 359 0.0 0.0 0.00 0.64 0.00 80 1013.4
20260507021438 17 359 0.0 0.0 0.00 0.64 0.00 80 1013.3
20260507020932 17 359 0.0 0.0 0.00 0.66 0.00 80 1013.3
20260507020432 17 359 0.0 0.0 0.00 0.79 0.00 80 1013.3
20260507015929 17 359 0.0 0.0 0.00 1.04 0.00 80 1013.3
20260507015435 17 359 0.0 0.0 0.00 1.24 0.00 79 1013.4
20260507014929 17 359 0.0 0.0 0.00 1.40 0.00 79 1013.3
20260507014432 17 359 0.0 0.0 0.00 1.45 0.00 79 1013.2
20260507013929 17 359 0.0 0.0 0.00 1.57 0.00 79 1013.3
20260507013429 17 359 0.0 0.0 0.00 1.88 0.00 79 1013.3
20260507012929 17 359 0.0 0.0 0.00 2.13 0.00 78 1013.3
20260507012429 17 359 0.0 0.0 0.00 2.72 0.00 78 1013.4
20260507011929 17 359 0.0 0.0 0.00 2.84 0.00 78 1013.5
20260507011429 17 359 0.0 0.0 0.00 2.97 0.00 78 1013.5
20260507010929 17 359 0.0 0.0 0.00 3.05 0.00 78 1013.5
20260507010432 17 359 0.0 0.0 0.00 3.10 0.00 78 1013.6
20260507005929 17 359 0.0 0.0 0.00 3.10 0.00 79 1013.6
20260507005429 17 359 0.0 0.0 0.00 3.17 0.00 79 1013.6
20260507004932 17 359 0.0 0.0 0.00 3.17 0.00 79 1013.7
20260507004429 17 359 0.0 0.0 0.00 3.23 0.00 79 1013.6
20260507003932 17 359 0.0 0.0 0.00 3.23 0.00 79 1013.6
20260507003435 17 359 0.0 0.0 0.00 3.35 0.00 79 1013.6
20260507002929 17 359 0.0 0.0 0.00 3.38 0.00 79 1013.5
20260507002432 17 359 0.0 0.0 0.00 3.45 0.00 78 1013.5
20260507001935 17 359 0.0 0.0 0.00 3.56 0.00 78 1013.5
20260507001429 17 359 0.0 0.0 0.00 3.56 0.00 78 1013.4
20260507000929 17 359 0.0 0.0 0.00 3.56 0.00 78 1013.4
20260507000435 17 359 0.0 0.0 0.00 3.56 0.00 77 1013.4
20260506235929 17 359 0.0 0.0 0.00 3.56 0.00 77 1013.5
20260506235438 17 359 0.0 0.0 0.00 3.56 0.00 77 1013.6
20260506234932 17 359 0.0 0.0 0.00 3.56 0.00 77 1013.6
20260506234429 17 359 0.0 0.0 0.00 3.56 0.00 77 1013.6
20260506233932 17 359 0.0 0.0 0.00 3.56 0.00 76 1013.6
20260506233429 17 359 0.0 0.0 0.00 3.56 0.00 76 1013.6
20260506232932 17 359 0.0 0.0 0.00 3.56 0.00 75 1013.6
20260506232429 17 359 0.0 0.0 0.00 3.56 0.00 75 1013.6
20260506231929 17 359 0.0 0.0 0.00 3.56 0.00 75 1013.6
20260506231432 17 359 0.0 0.0 0.00 3.56 0.00 75 1013.6
20260506230933 17 359 0.0 0.0 0.00 3.56 0.00 75 1013.6
20260506230429 17 359 0.0 0.0 0.00 3.56 0.00 75 1013.6
20260506225929 17 359 0.0 0.0 0.00 3.56 0.00 75 1013.6
20260506225432 17 359 0.0 0.0 0.00 3.56 0.00 75 1013.6
20260506224938 17 359 0.0 0.0 0.00 3.56 0.00 74 1013.5
20260506224432 17 359 0.0 0.0 0.00 3.56 0.00 74 1013.6
20260506223929 17 359 0.0 0.0 0.00 3.56 0.00 75 1013.5
20260506223432 17 359 0.0 0.0 0.00 3.56 0.00 75 1013.5
20260506222929 17 359 0.0 0.0 0.00 3.56 0.00 75 1013.6
20260506222435 17 359 0.0 0.0 0.00 3.56 0.00 75 1013.6
20260506221932 17 359 0.0 0.0 0.00 3.56 0.00 75 1013.6
20260506221429 17 359 0.0 0.0 0.00 3.56 0.00 75 1013.6
20260506220929 17 359 0.0 0.0 0.00 3.56 0.00 75 1013.6
20260506215939 17 359 0.0 0.0 0.00 3.56 0.00 75 1013.6
20260506215445 17 359 0.0 0.0 0.00 3.56 0.00 75 1013.6
20260506214948 17 359 0.0 0.0 0.00 3.56 0.00 75 1013.6
20260506214439 17 359 0.0 0.0 0.00 3.56 0.00 75 1013.6
20260506213939 17 359 0.0 0.0 0.00 3.56 0.00 76 1013.6
20260506213439 17 359 0.0 0.0 0.00 3.56 0.00 76 1013.7
20260506212939 17 359 0.0 0.0 0.00 3.56 0.00 76 1013.7
20260506212442 17 359 0.0 0.0 0.00 3.56 0.00 76 1013.6
20260506211939 17 359 0.0 0.0 0.00 3.56 0.00 76 1013.6
20260506211439 17 359 0.0 0.0 0.00 3.56 0.00 76 1013.6
20260506210948 17 359 0.0 0.0 0.00 3.56 0.00 76 1013.6
20260506210439 17 359 0.0 0.0 0.00 3.56 0.00 76 1013.6
20260506205942 17 359 0.0 0.0 0.00 3.56 0.00 76 1013.6
20260506205439 17 359 0.0 0.0 0.00 3.56 0.00 76 1013.6
20260506204939 17 359 0.0 0.0 0.00 3.56 0.00 76 1013.5
20260506204442 17 359 0.0 0.0 0.00 3.56 0.00 76 1013.5
20260506203939 17 359 0.0 0.0 0.00 3.56 0.00 76 1013.4
20260506203439 17 359 0.0 0.0 0.00 3.56 0.00 76 1013.4
20260506202939 17 359 0.0 0.0 0.00 3.56 0.00 76 1013.4
20260506202442 17 359 0.0 0.0 0.00 3.56 0.00 76 1013.3
20260506201939 17 359 0.0 0.0 0.00 3.56 0.00 76 1013.4
20260506201442 17 359 0.0 0.0 0.00 3.56 0.00 76 1013.4
20260506200939 17 359 0.0 0.0 0.00 3.56 0.00 76 1013.3
20260506200439 17 359 0.0 0.0 0.00 3.56 0.00 76 1013.2
20260506195942 17 359 0.0 0.0 0.00 3.56 0.00 76 1013.0
20260506195442 17 359 0.0 0.0 0.00 3.56 0.00 76 1013.0
20260506194939 17 359 0.0 0.0 0.00 3.56 0.00 76 1012.9
20260506194439 17 359 0.0 0.0 0.00 3.56 0.00 76 1012.8
20260506193939 17 359 0.0 0.0 0.00 3.56 0.00 76 1012.8
20260506193442 17 359 0.0 0.0 0.00 3.56 0.00 76 1012.8
20260506192939 17 359 0.0 0.0 0.00 3.56 0.00 77 1012.7
20260506192439 17 359 0.0 0.0 0.00 3.56 0.00 77 1012.7
20260506191945 17 359 0.0 0.0 0.00 3.56 0.00 77 1012.6
20260506191439 17 359 0.0 0.0 0.00 3.56 0.00 77 1012.6
20260506190945 17 359 0.0 0.0 0.00 3.56 0.00 78 1012.6
20260506190448 17 359 0.0 0.0 0.00 3.56 0.00 78 1012.4
20260506185939 17 359 0.0 0.0 0.00 3.56 0.00 78 1012.3
20260506185439 17 359 0.0 0.0 0.00 3.56 0.00 78 1012.3
20260506184939 17 359 0.0 0.0 0.00 3.56 0.00 78 1012.2
20260506184439 17 359 0.0 0.0 0.00 3.56 0.00 78 1012.2
20260506183939 17 359 0.0 0.0 0.00 3.56 0.00 78 1012.1
20260506183439 17 359 0.0 0.0 0.00 3.56 0.00 78 1012.1
20260506182939 17 359 0.0 0.0 0.00 3.56 0.00 78 1012.0
20260506182439 17 359 0.0 0.0 0.00 3.56 0.00 79 1011.9
20260506181942 17 359 0.0 0.0 0.00 3.56 0.00 79 1011.8
20260506181439 17 359 0.0 0.0 0.00 3.56 0.00 80 1011.8
20260506180942 17 359 0.0 0.0 0.00 3.56 0.00 80 1011.6
20260506180442 17 359 0.0 0.0 0.00 3.56 0.00 80 1011.5
20260506175942 17 359 0.0 0.0 0.00 3.56 0.00 80 1011.5
20260506175439 17 359 0.0 0.0 0.00 3.56 0.00 80 1011.5
20260506174945 17 359 0.0 0.0 0.00 3.56 0.00 79 1011.5
20260506174439 17 359 0.0 0.0 0.00 3.56 0.00 79 1011.5
20260506173945 17 359 0.0 0.0 0.00 3.56 0.00 79 1011.5
20260506173442 17 359 0.0 0.0 0.00 3.56 0.00 79 1011.4
20260506172942 17 359 0.0 0.0 0.00 3.56 0.00 78 1011.5
20260506172439 17 359 0.0 0.0 0.00 3.56 0.00 78 1011.4
20260506171942 17 359 0.0 0.0 0.00 3.56 0.00 78 1011.4
20260506171439 18 359 0.0 0.0 0.00 3.56 0.00 78 1011.4
20260506170939 18 359 0.0 0.0 0.00 3.56 0.00 78 1011.3
20260506170442 18 359 0.0 0.0 0.00 3.56 0.00 77 1011.4
20260506165942 18 359 0.0 0.0 0.00 3.56 0.00 76 1011.4
20260506165442 18 359 0.0 0.0 0.00 3.56 0.00 76 1011.3
20260506164939 18 359 0.0 0.0 0.00 3.56 0.00 75 1011.3
20260506164442 18 359 0.0 0.0 0.00 3.56 0.00 75 1011.4
20260506163939 18 191 0.0 0.0 0.00 3.56 0.00 74 1011.4
20260506163442 18 226 0.0 0.0 0.00 3.56 0.00 74 1011.4
20260506162939 18 359 0.0 0.0 0.00 3.56 0.00 74 1011.4
20260506162443 18 359 0.0 0.0 0.00 3.56 0.00 75 1011.4
20260506161942 18 211 0.0 0.0 0.00 3.56 0.00 75 1011.3
20260506161439 18 359 0.0 0.0 0.00 3.56 0.00 75 1011.4
20260506160939 18 121 0.0 0.0 0.00 3.56 0.00 76 1011.3
20260506160445 18 359 0.0 0.0 0.00 3.56 0.00 77 1011.3
20260506155939 18 206 0.0 0.0 0.00 3.56 0.00 78 1011.3
20260506155439 18 359 0.0 0.0 0.00 3.56 0.00 78 1011.3
20260506154943 18 359 0.0 0.0 0.00 3.56 0.00 77 1011.2
20260506154445 18 218 0.0 0.0 0.00 3.56 0.00 76 1011.2
20260506153943 18 201 0.0 0.0 0.00 3.56 0.00 76 1011.3
20260506153445 18 359 0.0 0.0 0.00 3.56 0.00 76 1011.1
20260506152939 19 359 0.0 0.0 0.00 3.56 0.00 76 1011.2
20260506152445 19 359 0.0 0.0 0.00 3.56 0.00 77 1011.2
20260506151940 19 359 0.0 0.0 0.00 3.56 0.00 76 1011.2
20260506151440 19 170 0.0 0.0 0.00 3.56 0.00 75 1011.2
20260506150940 19 246 0.0 0.0 0.00 3.56 0.00 75 1011.2
20260506150443 19 180 0.0 0.0 0.00 3.56 0.00 75 1011.2
20260506145940 19 200 0.0 0.0 0.00 3.56 0.00 76 1011.2
20260506145446 19 196 0.0 0.0 0.00 3.56 0.00 75 1011.2
20260506144940 20 359 0.0 0.0 0.00 3.56 0.00 74 1011.1
20260506144440 20 201 0.0 0.0 0.00 3.56 0.00 74 1011.2
20260506143940 20 176 0.0 0.0 0.00 3.56 0.00 75 1011.1